This is the latest recevied weather packets stored in our database for station/object KB1JDX. If no packets are shown the sender has not sent any weather packets the latest 10 day(s).
| Time | Temp. | Humidity | Pressure | Rain* | Wind** | Luminosity | Snow |
|---|---|---|---|---|---|---|---|
| 1777905634 | 17.78° C | 37% | 1011 hPa | 0 mm | 1.34 m/s, 164° | - | - |
| 1777904433 | 17.78° C | 41% | 1011.1 hPa | 0 mm | 3.13 m/s, 211° | - | - |
| 1777904366 | 17.78° C | 41% | 1011.1 hPa | 0 mm | 1.34 m/s, 213° | - | - |
| 1777903234 | 17.22° C | 42% | 1011.2 hPa | 0 mm | 7.15 m/s, 205° | - | - |
| 1777902033 | 16.11° C | 45% | 1011.6 hPa | 0 mm | 3.58 m/s, 214° | - | - |
| 1777900833 | 15° C | 49% | 1011.5 hPa | 0 mm | 0.45 m/s, 312° | - | - |
| 1777900766 | 15° C | 48% | 1011.7 hPa | 0 mm | 0.45 m/s, 196° | - | - |
| 1777899634 | 13.33° C | 51% | 1011.7 hPa | 0 mm | 0 m/s | - | - |
| 1777898433 | 11.67° C | 59% | 1012.1 hPa | 0 mm | 0 m/s | - | - |
| 1777897233 | 10° C | 64% | 1012.3 hPa | 0 mm | 0 m/s | - | - |
| 1777897166 | 10° C | 65% | 1012.3 hPa | 0 mm | 0 m/s | - | - |
| 1777896034 | 7.78° C | 67% | 1012.4 hPa | 0 mm | 0 m/s | - | - |
| 1777894833 | 6.11° C | 53% | 1012.3 hPa | 0 mm | 0 m/s | - | - |
| 1777893633 | 3.89° C | 35% | 1012.2 hPa | 0 mm | 0 m/s | - | - |
| 1777893566 | 3.89° C | 34% | 1012.3 hPa | 0 mm | 0 m/s | - | - |
| 1777892433 | 2.78° C | 30% | 1012.2 hPa | 0 mm | 0 m/s | - | - |
| 1777890033 | 1.67° C | 42% | 1012.4 hPa | 0 mm | 0 m/s | - | - |
| 1777889966 | 1.67° C | 42% | 1012.3 hPa | 0 mm | 0 m/s | - | - |
| 1777888833 | 1.67° C | 47% | 1012.1 hPa | 0 mm | 0 m/s | - | - |
| 1777887634 | 2.22° C | 50% | 1011.8 hPa | 0 mm | 0 m/s | - | - |
| 1777886434 | 2.22° C | 55% | 1012 hPa | 0 mm | 0 m/s | - | - |
| 1777886366 | 2.22° C | 55% | 1012 hPa | 0 mm | 0 m/s | - | - |
| 1777885288 | 2.78° C | 57% | 1011.8 hPa | 0 mm | 0 m/s | - | - |
| 1777885233 | 2.78° C | 57% | 1011.8 hPa | 0 mm | 0 m/s | - | - |
| 1777884034 | 2.78° C | 57% | 1011.5 hPa | 0 mm | 0 m/s | - | - |
* Rain latest hour (hover to see other rain measurements)
** Current wind speed in m/s (hover to see current wind gust speed)